Main page
METAR-TAF:

METAR-TAF

Airports :

Goeree Le, Netherlands

Oil platform

latitude: 51-55-33N, longitude: 3-40-12E, elevation: 19 m

Current weather observation

The report was made 36 minutes ago, at 20:55 UTC
Wind 29 kt from the Southwest
Temperature 9°C
Humidity 100%
Pressure 1015 hPa
Visibility: 3400 m
mist

METAR: EHSC 232055Z AUTO 22029KT 3400 BR ///////// 09/09 Q1015 W07/H14

Time: 22:31 (21:31 UTC)


TAF: missing

Weather observations and forecasts of more than 4000 airports (METAR and TAF reports).

The available stations are represented by yellow and red dots on the map.

Hover mouse over dot to see the name of the station.

Then click to see weather observations and forecasts.

To change the map : click on the green buttons with a black cross to zoom in, on the green button with a dash to zoom out, or on the green arrows for adjacent maps.


METAR-TAF: